Temperature
16 14 13 14 14 15 15 15 15 15 16 16 14 14 15 16 15 13 13 14 14 14 14 14 14 14 14 13 13 13 13 12 12 12 11 11 10 10 10 10 9 9 9 9
13 13 14 15 15 15 15 15 15 15 16 16 15 14 14 14 14 14 13 13 13 13 13 13 13 13 13 13 13 13 13 12 12 12 11 11 10 10 10 10 9 9 9 9
13 14 15 15 15 15 15 15 15 15 15 15 15 14 14 14 14 14 14 14 14 14 13 13 13 13 13 13 13 13 13 12 12 12 12 11 11 10 10 10 9 9 9 8
13 14 16 15 15 15 14 15 15 15 14 13 14 12 13 14 13 12 12 12 13 13 13 13 13 13 13 13 12 12 12 12 12 12 11 11 11 10 10 9 9 8 8 8
13 14 14 15 15 15 15 16 16 16 14 13 12 13 13 13 13 11 10 11 12 13 13 13 13 13 12 12 12 12 12 12 12 11 11 11 10 10 9 9 8 8 8 7
14 15 15 15 16 15 15 15 14 11 11 12 12 11 12 12 12 12 11 11 12 13 13 13 12 12 12 12 12 12 12 12 11 11 11 10 10 10 9 8 8 8 7 7
14 15 15 15 15 15 14 13 12 12 11 11 12 12 13 14 13 13 12 11 12 12 13 12 12 12 12 12 11 11 11 11 11 11 10 10 9 9 9 8 8 7 7 7
13 13 14 14 14 13 13 13 12 12 11 12 13 12 14 14 14 14 14 12 12 12 12 13 13 12 12 12 11 11 11 11 11 10 10 9 9 8 8 7 7 7 6 6
12 13 14 14 14 14 12 12 12 12 12 12 12 13 14 15 13 12 12 12 11 12 12 13 13 12 12 11 11 11 11 10 10 10 9 9 8 8 7 7 7 6 6 5
13 13 14 14 14 14 13 12 11 11 11 11 12 13 14 15 14 12 10 11 11 12 12 13 13 12 12 11 11 10 10 10 10 9 9 8 8 7 7 7 6 6 5 5
13 13 13 13 13 13 13 13 12 11 11 11 12 13 14 14 13 12 11 12 12 12 13 13 13 12 12 11 10 10 10 9 9 9 8 8 7 7 6 6 6 5 5 4
12 11 11 12 13 13 12 12 12 11 11 11 11 12 14 13 13 12 12 13 13 13 13 13 13 12 11 10 10 10 9 9 9 8 8 7 7 6 6 5 5 4 4 4
13 11 11 12 12 12 12 12 12 12 11 10 10 13 14 13 13 13 13 13 13 13 13 12 12 11 11 10 10 9 9 9 8 8 7 7 6 6 5 5 4 4 3 3
13 11 12 12 12 12 12 12 12 12 11 11 11 13 14 14 13 13 14 14 14 13 13 12 12 11 11 10 9 9 8 8 8 7 6 6 6 5 5 4 4 3 3 2
12 12 12 13 14 12 12 13 12 12 12 12 12 12 14 13 12 14 14 14 13 12 12 12 11 11 10 10 9 8 8 8 7 6 6 5 5 5 4 4 3 3 2 2
11 12 12 13 13 13 13 13 12 12 13 12 12 12 13 14 14 13 13 12 12 12 12 12 11 11 10 9 9 8 8 7 6 6 5 5 4 4 3 3 2 2 2 1
10 11 11 11 13 13 12 13 13 12 12 12 13 14 13 12 11 12 13 13 13 13 12 11 11 10 10 9 8 8 7 6 6 5 5 4 4 3 3 2 2 2 1 1
10 10 10 10 11 11 12 13 13 13 13 12 12 12 12 12 13 13 13 13 13 12 12 11 10 10 9 8 8 7 6 6 5 5 4 4 3 3 2 2 1 1 1 0
10 10 9 8 9 10 11 12 12 12 12 12 12 11 11 10 10 11 12 12 13 12 11 11 10 9 8 7 7 6 6 5 5 4 4 3 3 2 2 1 1 0 0 -0
9 9 8 7 9 9 12 13 13 13 12 12 11 9 9 9 9 9 12 12 11 11 10 9 9 8 7 7 6 6 5 5 4 4 3 3 2 2 1 1 0 -0 -1 -1
9 8 8 7 8 9 11 12 12 12 12 13 12 11 10 9 10 12 11 11 10 10 9 8 8 7 6 6 5 5 4 4 3 3 2 2 2 1 1 0 -0 -1 -1 -1
9 8 7 7 8 9 10 10 11 12 12 13 13 13 12 12 11 11 10 10 9 8 8 7 7 6 6 5 5 4 4 3 3 2 2 2 1 1 0 -1 -1 -1 -2 -2
9 10 9 9 10 11 12 12 13 13 13 13 13 13 12 11 11 10 9 8 8 7 7 6 6 5 5 4 4 3 3 2 2 2 1 1 1 0 -1 -1 -2 -2 -2 -3
7 8 8 8 8 10 11 12 13 13 13 13 13 13 12 11 10 9 8 7 7 6 6 5 5 5 4 4 3 3 2 2 1 1 1 0 -0 -1 -1 -2 -2 -3 -3 -3
8 7 7 8 9 9 10 12 12 12 12 12 12 11 11 10 9 8 7 7 6 5 5 4 4 4 3 3 3 2 2 1 1 0 0 -0 -1 -1 -2 -2 -3 -3 -4 -4
7 7 8 9 9 9 11 13 12 12 12 11 11 10 10 9 9 8 7 6 5 5 4 4 3 3 3 2 2 2 1 0 -0 -0 -1 -1 -2 -2 -3 -3 -3 -3 -4 -5
Wind_Speed
4 4 6 10 11 8 5 5 7 8 6 6 10 12 11 9 7 9 9 9 9 8 5 5 6 7 8 8 8 8 8 6 6 4 4 3 2 1 2 2 2 2 2 2
3 7 12 9 6 6 7 7 7 7 4 4 7 12 12 10 11 13 16 13 11 9 7 6 6 5 6 7 7 7 8 7 6 4 3 3 3 2 1 2 3 3 3 2
11 8 8 8 8 7 7 6 6 7 5 4 5 9 8 6 7 9 11 12 12 13 12 9 7 6 6 7 7 7 7 7 6 5 4 4 4 3 3 3 2 4 4 3
8 8 5 7 8 9 7 7 6 4 2 5 2 6 8 5 4 9 11 11 12 12 11 10 9 8 7 6 6 7 7 7 6 6 6 5 4 2 1 1 2 3 4 4
9 7 9 10 9 9 8 5 3 2 3 4 3 5 9 3 7 11 13 14 13 13 13 12 10 9 7 6 7 7 7 6 6 6 7 6 4 2 1 1 2 3 4 5
8 5 8 10 5 6 5 4 4 5 3 4 7 7 8 6 10 10 13 14 14 13 12 11 9 8 7 6 6 6 7 6 5 6 6 6 6 4 3 2 2 3 3 3
5 5 4 5 5 3 5 5 2 3 1 7 5 6 10 9 9 12 18 19 15 14 14 13 12 11 9 9 8 7 8 6 5 6 5 5 5 4 3 1 0 1 2 3
9 7 8 7 9 8 7 9 7 6 5 5 3 8 9 6 6 8 12 15 15 14 14 15 15 13 11 10 9 8 8 6 6 6 5 4 4 3 2 1 1 1 2 3
10 8 4 7 6 12 8 7 8 5 3 4 7 7 8 2 3 5 11 13 16 16 16 15 14 13 12 11 10 9 9 7 6 6 5 4 3 3 2 1 1 1 2 3
9 5 2 1 5 4 8 8 6 5 5 5 7 6 6 6 5 6 11 15 16 15 14 14 14 13 12 10 9 9 9 8 6 6 5 3 3 2 1 1 2 3 4 3
8 7 2 2 8 10 7 6 6 6 5 6 4 7 6 7 8 10 13 15 17 17 17 15 14 12 11 10 9 9 8 7 6 6 4 3 2 1 1 1 3 3 3 4
9 6 5 8 6 6 9 9 9 6 6 6 4 7 6 5 6 9 11 11 13 14 14 13 13 12 11 11 10 9 8 7 6 5 4 3 2 1 1 3 4 4 5 5
11 8 5 1 2 3 6 7 9 6 4 5 5 7 4 2 1 5 8 10 11 11 11 11 11 12 12 11 10 9 8 8 6 5 4 3 2 2 3 4 5 5 5 6
11 7 8 11 7 8 7 8 10 9 6 7 9 9 7 5 5 6 8 10 10 11 12 12 12 11 11 10 10 9 8 7 6 5 4 3 4 4 5 5 5 6 6 7
8 7 8 8 6 7 8 9 12 13 13 11 10 11 12 9 10 9 8 8 9 10 11 13 12 11 10 9 9 8 7 6 5 5 4 4 5 5 5 6 6 7 7 8
6 7 7 6 7 7 7 9 11 12 11 12 11 12 10 7 5 6 8 10 11 11 12 12 11 11 11 11 10 8 7 6 5 4 4 4 4 5 6 6 7 7 8 8
7 8 6 5 4 3 8 10 11 8 9 10 14 16 8 6 8 9 10 11 12 11 11 11 12 11 11 10 10 9 7 5 4 4 4 5 5 6 7 7 7 8 8 8
9 8 5 4 4 8 9 7 9 10 10 11 9 7 7 8 5 2 6 9 9 9 10 10 9 9 8 7 7 6 5 4 4 4 4 5 6 7 7 7 8 8 8 8
6 8 5 5 6 7 8 5 7 9 9 8 11 8 4 5 4 3 2 5 8 8 8 8 8 8 8 8 7 6 4 3 3 4 6 6 6 7 7 8 9 8 8 8
4 5 6 6 6 8 9 5 4 5 7 7 8 8 8 8 3 5 3 5 7 8 8 8 8 8 8 6 6 5 4 3 5 6 7 7 6 7 8 9 9 8 8 9
5 4 6 6 7 8 8 4 7 6 9 4 8 9 11 10 6 4 7 6 7 8 9 9 9 7 6 5 5 4 4 5 6 6 6 6 7 7 8 8 8 8 9 9
11 9 8 7 6 10 6 8 10 9 3 5 7 8 9 6 5 7 8 9 10 9 8 8 7 5 4 4 4 4 5 6 5 5 6 7 8 8 7 8 8 8 9 9
10 11 9 11 10 6 8 9 7 6 6 6 7 7 9 8 7 8 8 9 8 8 7 6 6 5 3 3 4 5 5 5 5 6 7 8 8 8 8 8 9 8 8 8
6 4 6 6 8 6 6 5 5 7 7 6 7 8 10 9 9 9 9 8 7 6 6 5 5 4 3 3 3 5 5 5 5 7 8 7 8 8 8 7 7 8 8 9
9 9 6 6 5 2 5 8 8 6 6 6 6 7 9 10 9 9 9 8 7 5 5 5 4 4 4 4 4 5 5 5 6 7 8 8 7 8 8 8 7 9 8 10
6 9 10 9 9 8 8 9 9 9 8 8 8 6 6 9 10 9 8 7 6 6 5 4 3 4 4 4 6 6 5 5 6 7 7 7 7 7 8 9 10 14 16 21
Wind_Direction
158 127 199 212 204 207 216 234 263 262 253 207 230 249 253 235 203 187 184 177 167 158 145 111 99 101 101 101 106 111 114 117 117 108 109 107 100 71 52 48 47 35 9 343
117 221 224 216 203 208 225 248 267 284 288 220 252 263 258 230 207 193 185 180 172 159 147 131 116 110 112 118 115 116 119 120 119 119 122 123 121 103 77 20 17 5 353 342
188 219 217 207 215 216 228 225 240 258 306 310 294 292 274 252 205 187 183 178 172 165 160 153 140 130 127 131 135 130 126 120 116 115 104 83 66 48 29 10 349 342 346 341
219 235 214 203 212 196 238 229 219 240 260 281 252 285 281 252 204 189 184 181 179 169 160 157 152 149 149 150 139 130 126 120 118 117 117 123 125 132 193 296 334 345 1 353
224 210 200 212 214 189 214 206 197 214 204 277 244 230 279 232 222 214 196 189 184 174 166 164 162 158 154 150 142 135 125 119 120 117 123 123 122 134 115 49 24 3 354 356
221 220 197 202 193 180 163 86 43 47 85 270 224 196 272 226 216 206 195 191 185 176 168 161 156 149 147 148 142 139 131 126 125 122 124 130 133 130 108 63 21 354 342 342
231 235 211 153 130 127 126 109 356 317 296 249 213 200 249 247 224 198 190 189 184 176 168 164 163 164 163 161 158 153 144 140 137 130 130 137 141 138 137 145 356 335 331 324
196 237 211 187 173 173 179 162 182 216 232 273 229 221 252 268 263 203 181 176 175 177 176 174 174 171 170 169 166 160 156 154 151 143 143 141 139 136 150 175 203 266 276 284
186 227 239 202 179 151 160 195 184 159 257 270 273 276 299 280 28 139 155 165 180 183 182 180 177 175 173 172 173 169 163 160 161 156 147 141 140 141 163 216 250 280 285 287
164 206 242 193 118 160 161 164 136 162 201 241 273 269 256 258 223 176 175 182 187 185 185 183 180 179 177 174 170 166 164 164 164 160 157 154 160 171 190 227 294 298 300 303
162 177 210 171 186 186 164 175 179 179 186 185 251 269 234 240 215 198 198 193 189 188 188 186 184 180 174 167 165 166 166 160 162 163 160 154 175 194 210 268 282 287 291 297
166 153 199 232 238 196 184 188 169 180 223 199 204 267 277 273 227 201 201 199 194 192 189 184 178 172 171 171 170 170 168 166 169 166 161 171 190 215 262 277 281 282 284 286
161 152 160 291 261 192 204 206 195 180 159 179 192 260 302 339 206 207 203 200 193 187 182 176 174 176 178 176 173 172 170 170 168 163 165 184 216 244 262 271 276 278 280 286
153 152 181 197 204 185 201 208 194 183 204 222 224 247 279 269 245 226 211 201 192 187 183 179 180 180 177 173 171 169 171 170 167 167 178 208 235 246 256 265 271 275 278 284
145 177 198 213 212 177 200 207 194 201 211 215 233 231 244 241 231 226 213 195 184 185 184 183 181 177 170 167 167 167 168 169 168 174 199 230 246 253 261 268 272 275 278 279
138 171 184 217 217 206 221 222 208 214 221 229 247 258 243 241 218 211 202 192 193 193 188 182 176 171 171 170 168 166 169 173 170 185 219 240 253 261 265 268 271 275 277 278
158 152 162 216 218 195 244 222 209 209 210 202 230 246 237 217 215 212 204 199 199 193 182 176 174 173 171 170 166 169 173 171 176 202 232 248 255 263 266 269 273 274 276 276
154 152 155 170 160 222 239 222 205 216 234 218 228 244 223 218 208 206 198 195 193 181 172 167 160 157 156 154 154 155 159 169 190 221 245 254 257 262 267 270 271 273 272 274
152 148 145 158 206 258 283 241 191 201 252 228 223 230 186 126 83 334 265 189 181 171 159 153 150 146 144 148 150 148 161 180 210 238 250 255 255 260 268 271 273 274 275 277
97 128 142 157 188 225 237 223 173 141 260 241 193 188 169 139 168 245 193 146 136 131 133 134 132 129 137 148 145 149 180 206 235 245 252 256 257 259 265 269 273 275 274 277
149 151 170 178 212 249 246 195 126 175 239 213 178 177 171 185 199 172 137 128 131 130 131 130 129 135 149 152 147 171 204 231 242 251 260 265 264 264 265 269 271 277 280 283
177 179 188 173 204 245 218 149 183 212 186 166 170 173 175 175 132 135 138 138 136 131 129 129 131 140 152 154 159 198 234 245 256 263 267 270 270 272 276 273 277 278 281 286
196 192 187 194 213 228 186 196 205 167 171 180 172 171 157 151 158 153 149 146 143 138 137 134 139 146 163 178 182 220 248 262 269 272 272 274 276 275 274 274 280 285 282 284
233 178 164 216 245 233 216 213 193 184 184 178 168 160 159 162 162 158 154 151 147 143 144 139 140 157 200 225 229 236 258 269 271 273 276 278 280 281 278 275 275 280 283 285
197 171 180 219 243 215 232 214 198 180 162 150 148 161 166 157 159 161 160 158 154 147 145 146 160 191 226 247 258 262 266 271 273 275 277 279 276 278 282 277 271 279 270 276
188 175 182 211 205 189 216 210 183 174 179 170 156 153 158 161 158 154 155 153 149 148 148 158 184 215 242 256 267 273 271 266 269 276 278 277 278 280 281 287 291 286 287 294
Height
1525 1531 1534 1531 1531 1531 1532 1534 1535 1530 1522 1523 1524 1521 1516 1514 1515 1515 1515 1517 1518 1519 1520 1521 1522 1524 1525 1527 1529 1531 1533 1535 1536 1538 1539 1541 1542 1542 1543 1543 1542 1542 1541 1540
1529 1530 1524 1523 1526 1529 1530 1532 1532 1526 1520 1521 1521 1518 1511 1508 1508 1507 1509 1512 1514 1516 1518 1520 1521 1523 1525 1526 1528 1530 1532 1534 1535 1537 1538 1539 1540 1540 1540 1540 1540 1539 1538 1537
1525 1521 1517 1522 1524 1527 1528 1529 1527 1527 1522 1519 1521 1519 1509 1503 1502 1504 1506 1508 1510 1512 1514 1517 1520 1522 1524 1526 1528 1529 1531 1533 1535 1536 1537 1538 1538 1539 1538 1538 1538 1537 1536 1535
1520 1515 1516 1519 1520 1522 1527 1521 1522 1523 1528 1531 1525 1532 1511 1503 1502 1502 1503 1505 1508 1510 1513 1515 1518 1521 1523 1525 1527 1529 1531 1533 1534 1535 1536 1536 1537 1537 1537 1536 1535 1535 1534 1532
1515 1511 1514 1517 1516 1516 1519 1516 1518 1520 1525 1531 1528 1530 1513 1503 1503 1500 1499 1501 1504 1507 1510 1513 1517 1520 1522 1525 1527 1529 1530 1532 1533 1534 1535 1535 1535 1535 1535 1534 1533 1532 1531 1530
1508 1506 1506 1508 1509 1511 1514 1518 1522 1528 1532 1537 1526 1530 1516 1503 1494 1492 1494 1497 1500 1504 1508 1512 1516 1519 1521 1524 1526 1528 1529 1531 1532 1533 1533 1534 1533 1533 1532 1532 1531 1530 1529 1527
1508 1505 1503 1504 1510 1511 1515 1527 1538 1537 1542 1535 1519 1521 1507 1486 1483 1483 1486 1491 1496 1501 1505 1509 1512 1516 1519 1522 1524 1526 1528 1529 1531 1531 1532 1532 1531 1531 1530 1529 1528 1527 1526 1524
1512 1512 1502 1501 1504 1511 1515 1521 1535 1539 1538 1527 1514 1516 1494 1481 1478 1478 1481 1487 1493 1498 1502 1505 1509 1513 1516 1519 1522 1524 1526 1528 1529 1529 1530 1529 1529 1529 1528 1527 1525 1524 1522 1520
1506 1507 1496 1496 1496 1502 1514 1518 1516 1526 1525 1527 1517 1503 1487 1478 1478 1478 1481 1486 1490 1494 1498 1502 1506 1510 1514 1517 1520 1522 1524 1525 1526 1527 1527 1527 1527 1526 1525 1524 1522 1521 1519 1517
1494 1502 1497 1495 1496 1498 1502 1507 1518 1525 1531 1531 1517 1505 1495 1481 1479 1481 1482 1484 1487 1491 1495 1499 1503 1507 1511 1514 1517 1520 1521 1523 1524 1524 1525 1524 1524 1523 1522 1521 1519 1517 1515 1512
1488 1499 1500 1498 1498 1500 1503 1506 1509 1516 1520 1525 1521 1505 1481 1478 1476 1478 1479 1480 1483 1487 1491 1495 1499 1503 1507 1511 1514 1516 1518 1520 1521 1521 1522 1521 1521 1520 1519 1517 1515 1513 1511 1508
1483 1494 1501 1498 1492 1491 1494 1497 1504 1514 1513 1514 1516 1503 1475 1474 1473 1474 1476 1478 1481 1484 1487 1491 1496 1500 1504 1507 1510 1512 1515 1516 1517 1518 1518 1518 1518 1516 1515 1513 1511 1509 1506 1503
1478 1491 1501 1501 1498 1494 1494 1493 1494 1498 1504 1512 1513 1498 1475 1473 1473 1473 1474 1476 1479 1482 1485 1489 1492 1496 1499 1502 1506 1509 1511 1512 1514 1514 1515 1514 1514 1512 1511 1509 1507 1504 1501 1498
1468 1481 1488 1492 1488 1486 1489 1487 1488 1494 1502 1504 1500 1489 1477 1474 1473 1473 1473 1474 1476 1478 1481 1484 1488 1491 1495 1499 1502 1505 1507 1509 1510 1510 1511 1510 1509 1508 1506 1504 1502 1499 1496 1492
1465 1476 1477 1476 1474 1478 1479 1479 1482 1486 1486 1491 1485 1482 1474 1470 1470 1469 1469 1471 1473 1475 1478 1480 1483 1487 1491 1495 1498 1501 1503 1505 1506 1506 1506 1506 1505 1503 1501 1499 1496 1493 1490 1486
1464 1471 1473 1474 1472 1474 1475 1474 1476 1477 1478 1480 1478 1475 1465 1465 1465 1466 1466 1468 1469 1471 1473 1477 1480 1484 1488 1491 1494 1497 1499 1501 1502 1502 1502 1501 1500 1498 1496 1493 1490 1487 1483 1480
1465 1469 1475 1479 1473 1473 1478 1470 1470 1470 1469 1470 1471 1464 1460 1463 1462 1462 1462 1464 1465 1467 1470 1473 1477 1480 1484 1488 1491 1494 1496 1497 1498 1498 1497 1496 1495 1492 1490 1487 1484 1480 1477 1473
1461 1467 1474 1479 1478 1485 1468 1458 1458 1461 1459 1459 1458 1456 1456 1457 1458 1459 1460 1461 1463 1465 1468 1471 1475 1478 1482 1485 1488 1490 1492 1493 1493 1493 1492 1491 1489 1486 1484 1481 1477 1474 1470 1465
1455 1462 1473 1482 1481 1475 1464 1455 1455 1459 1457 1452 1453 1453 1454 1456 1457 1458 1458 1460 1461 1463 1466 1469 1473 1477 1480 1483 1485 1487 1488 1489 1488 1488 1487 1485 1483 1480 1477 1474 1470 1467 1462 1457
1456 1458 1469 1478 1478 1475 1459 1449 1448 1453 1457 1447 1447 1450 1453 1455 1461 1458 1457 1458 1460 1463 1466 1469 1472 1475 1478 1480 1482 1483 1484 1484 1483 1482 1481 1479 1477 1474 1470 1467 1463 1459 1455 1449
1459 1462 1467 1472 1472 1464 1450 1446 1449 1460 1453 1443 1443 1445 1448 1451 1453 1453 1454 1456 1459 1462 1465 1468 1471 1474 1476 1477 1479 1479 1479 1479 1478 1477 1475 1473 1470 1467 1464 1460 1456 1451 1446 1441
1450 1458 1463 1467 1469 1463 1442 1445 1447 1444 1440 1440 1442 1443 1445 1448 1449 1451 1453 1455 1458 1461 1464 1467 1469 1472 1473 1474 1475 1475 1475 1474 1473 1471 1469 1466 1464 1460 1457 1452 1448 1444 1438 1433
1440 1439 1443 1445 1444 1437 1435 1435 1435 1437 1438 1439 1440 1442 1444 1446 1448 1450 1452 1455 1457 1460 1463 1465 1467 1469 1470 1471 1471 1471 1470 1469 1467 1464 1462 1459 1456 1453 1449 1445 1440 1435 1430 1425
1434 1433 1437 1439 1435 1432 1431 1432 1433 1435 1436 1437 1439 1440 1442 1443 1446 1448 1451 1454 1456 1459 1461 1463 1465 1466 1467 1467 1467 1466 1465 1463 1460 1458 1455 1452 1448 1444 1441 1436 1432 1427 1422 1416
1424 1428 1431 1432 1429 1429 1428 1428 1430 1432 1434 1435 1437 1438 1440 1442 1444 1446 1449 1452 1455 1457 1459 1461 1462 1463 1464 1463 1463 1461 1459 1457 1454 1451 1448 1444 1440 1436 1431 1427 1424 1418 1414 1410
1418 1421 1424 1424 1421 1423 1423 1424 1427 1429 1430 1432 1434 1436 1438 1440 1441 1444 1447 1450 1453 1455 1457 1458 1459 1459 1459 1459 1457 1456 1453 1450 1447 1443 1440 1436 1432 1428 1423 1418 1413 1409 1406 1401